When you browse on this site, cookies collect data to enhance your experience and personalize the content and advertising you see.
Visit our Privacy Policy to learn more. By continuing to use the site, you agree to this use of cookies and data.
  • In Hungary
  • List of Countries
  • For 7 days
  • Water Temperature
  • Weather Map
  • News
  • Weather Widgets
  • user-avatar
    Login

    Hourly Weather Yasenivka

    Today, 13 December, Friday

    Time Temperature Precipitation Wind Pressure Humidity
    00:00 -1°C° 0 mm 4 mps 749 mmHg 92%
    01:00 -1°C° 0 mm 4 mps 748 mmHg 90%
    02:00 -1°C° 0 mm 4 mps 748 mmHg 90%
    03:00 -1°C° 0 mm 4 mps 747 mmHg 89%
    04:00 -1°C° 0 mm 4 mps 747 mmHg 88%
    05:00 -1°C° 0 mm 4 mps 746 mmHg 87%
    06:00 -1°C° 0 mm 4 mps 746 mmHg 87%
    07:00 -1°C° 0 mm 4 mps 746 mmHg 88%
    08:00 -2°C° 0 mm 5 mps 746 mmHg 88%
    09:00 -1°C° 0 mm 5 mps 746 mmHg 87%
    10:00 -1°C° 0 mm 5 mps 746 mmHg 86%
    11:00 -1°C° 0 mm 5 mps 745 mmHg 85%
    12:00 -1°C° 0 mm 5 mps 745 mmHg 84%
    13:00 0°C° 0 mm 5 mps 745 mmHg 83%
    14:00 0°C° 0 mm 5 mps 744 mmHg 81%
    15:00 -1°C° 0 mm 5 mps 744 mmHg 82%
    16:00 -2°C° 0 mm 6 mps 744 mmHg 83%
    17:00 -2°C° 0 mm 6 mps 743 mmHg 84%
    18:00 -2°C° 0 mm 6 mps 743 mmHg 84%
    19:00 -2°C° 0 mm 6 mps 743 mmHg 83%
    20:00 -2°C° 0 mm 6 mps 744 mmHg 83%
    21:00 -2°C° 0 mm 6 mps 744 mmHg 83%
    22:00 -2°C° 0 mm 6 mps 743 mmHg 82%
    23:00 -2°C° 0 mm 6 mps 743 mmHg 82%

    Tomorrow, 14 December, Saturday

    Time Temperature Precipitation Wind Pressure Humidity
    00:00 -2°C° 0 mm 6 mps 744 mmHg 82%
    01:00 -2°C° 0 mm 6 mps 744 mmHg 82%
    02:00 -2°C° 0 mm 6 mps 744 mmHg 82%
    03:00 -1°C° 0 mm 5 mps 744 mmHg 82%
    04:00 -1°C° 0 mm 5 mps 743 mmHg 83%
    05:00 -1°C° 0 mm 5 mps 743 mmHg 83%
    06:00 -1°C° 0 mm 5 mps 743 mmHg 84%
    07:00 -1°C° 0 mm 5 mps 744 mmHg 85%
    08:00 -1°C° 0 mm 4 mps 744 mmHg 86%
    09:00 -1°C° 0.1 mm 5 mps 744 mmHg 89%
    10:00 -1°C° 0.1 mm 5 mps 744 mmHg 92%
    11:00 -1°C° 0.1 mm 5 mps 744 mmHg 95%
    12:00 -1°C° 0.1 mm 5 mps 744 mmHg 95%
    13:00 -1°C° 0.1 mm 4 mps 743 mmHg 95%
    14:00 0°C° 0.1 mm 4 mps 743 mmHg 95%
    15:00 0°C° 0 mm 4 mps 743 mmHg 94%
    16:00 0°C° 0 mm 4 mps 744 mmHg 94%
    17:00 0°C° 0 mm 4 mps 744 mmHg 93%
    18:00 0°C° 0 mm 4 mps 744 mmHg 94%
    19:00 0°C° 0 mm 4 mps 744 mmHg 94%
    20:00 0°C° 0 mm 4 mps 744 mmHg 95%
    21:00 0°C° 0 mm 4 mps 743 mmHg 96%
    22:00 +1°C° 0 mm 5 mps 743 mmHg 96%
    23:00 +1°C° 0 mm 5 mps 743 mmHg 97%

    Day after tomorrow, 15 December, Sunday

    Time Temperature Precipitation Wind Pressure Humidity
    00:00 +2°C° 0.7 mm 5 mps 743 mmHg 97%
    01:00 +2°C° 0.7 mm 5 mps 743 mmHg 96%
    02:00 +3°C° 0.7 mm 5 mps 743 mmHg 96%
    03:00 +3°C° 1 mm 5 mps 743 mmHg 96%
    04:00 +4°C° 1 mm 4 mps 743 mmHg 97%
    05:00 +4°C° 1 mm 4 mps 742 mmHg 97%
    06:00 +4°C° 0 mm 4 mps 743 mmHg 96%
    07:00 +4°C° 0 mm 4 mps 743 mmHg 95%
    08:00 +4°C° 0 mm 4 mps 744 mmHg 94%
    09:00 +4°C° 0 mm 4 mps 744 mmHg 90%
    10:00 +4°C° 0 mm 4 mps 744 mmHg 86%
    11:00 +4°C° 0 mm 4 mps 745 mmHg 81%
    12:00 +4°C° 0 mm 4 mps 745 mmHg 78%
    13:00 +4°C° 0 mm 3 mps 746 mmHg 76%
    14:00 +4°C° 0 mm 3 mps 746 mmHg 73%
    15:00 +4°C° 0 mm 3 mps 747 mmHg 76%
    16:00 +3°C° 0 mm 3 mps 747 mmHg 80%
    17:00 +2°C° 0 mm 3 mps 748 mmHg 83%
    18:00 +2°C° 0 mm 3 mps 748 mmHg 84%
    19:00 +2°C° 0 mm 3 mps 748 mmHg 85%
    20:00 0°C° 0 mm 4 mps 748 mmHg 87%
    21:00 +1°C° 0 mm 4 mps 749 mmHg 86%
    22:00 +1°C° 0 mm 4 mps 749 mmHg 84%
    23:00 +2°C° 0 mm 5 mps 749 mmHg 83%

    16 December, Monday

    Time Temperature Precipitation Wind Pressure Humidity
    00:00 +2°C° 0 mm 5 mps 749 mmHg 81%
    01:00 +2°C° 0 mm 5 mps 749 mmHg 79%
    02:00 +3°C° 0 mm 5 mps 749 mmHg 77%
    03:00 +3°C° 0.2 mm 5 mps 749 mmHg 78%
    04:00 +4°C° 0.2 mm 4 mps 749 mmHg 79%
    05:00 +4°C° 0.2 mm 4 mps 749 mmHg 81%
    06:00 +3°C° 0.1 mm 4 mps 750 mmHg 81%
    07:00 +3°C° 0.1 mm 4 mps 750 mmHg 80%
    08:00 +3°C° 0.1 mm 3 mps 750 mmHg 80%
    09:00 +4°C° 0 mm 4 mps 750 mmHg 78%
    10:00 +4°C° 0 mm 4 mps 751 mmHg 76%
    11:00 +4°C° 0 mm 4 mps 751 mmHg 74%
    12:00 +4°C° 0 mm 3 mps 751 mmHg 74%
    13:00 +5°C° 0 mm 3 mps 751 mmHg 75%
    14:00 +5°C° 0 mm 3 mps 751 mmHg 75%
    15:00 +5°C° 0 mm 2 mps 751 mmHg 79%
    16:00 +4°C° 0 mm 2 mps 752 mmHg 83%
    17:00 +4°C° 0 mm 2 mps 752 mmHg 87%
    18:00 +4°C° 0 mm 2 mps 752 mmHg 87%
    19:00 +3°C° 0 mm 2 mps 752 mmHg 88%
    20:00 +3°C° 0 mm 2 mps 752 mmHg 89%
    21:00 +3°C° 0 mm 2 mps 752 mmHg 89%
    22:00 +3°C° 0 mm 2 mps 753 mmHg 90%
    23:00 +3°C° 0 mm 2 mps 753 mmHg 90%

    17 December, Tuesday

    Time Temperature Precipitation Wind Pressure Humidity
    00:00 +3°C° 0 mm 2 mps 752 mmHg 89%
    01:00 +4°C° 0 mm 2 mps 752 mmHg 89%
    02:00 +4°C° 0 mm 2 mps 752 mmHg 88%
    03:00 +4°C° 0 mm 2 mps 752 mmHg 88%
    04:00 +2°C° 0 mm 3 mps 752 mmHg 89%
    05:00 +2°C° 0 mm 3 mps 752 mmHg 89%
    06:00 +2°C° 0 mm 3 mps 752 mmHg 89%
    07:00 +2°C° 0 mm 3 mps 752 mmHg 89%
    08:00 +2°C° 0 mm 3 mps 752 mmHg 90%
    09:00 +2°C° 0 mm 3 mps 752 mmHg 86%
    10:00 +3°C° 0 mm 4 mps 752 mmHg 83%
    11:00 +4°C° 0 mm 4 mps 752 mmHg 80%
    12:00 +4°C° 0 mm 4 mps 751 mmHg 79%
    13:00 +4°C° 0 mm 3 mps 751 mmHg 77%
    14:00 +4°C° 0 mm 3 mps 750 mmHg 76%
    15:00 +3°C° 0 mm 3 mps 751 mmHg 80%
    16:00 +3°C° 0 mm 3 mps 751 mmHg 83%
    17:00 +2°C° 0 mm 3 mps 751 mmHg 87%
    18:00 +2°C° 0 mm 3 mps 751 mmHg 87%
    19:00 +2°C° 0 mm 3 mps 750 mmHg 88%
    20:00 +2°C° 0 mm 3 mps 750 mmHg 89%
    21:00 +2°C° 0 mm 3 mps 750 mmHg 89%
    22:00 +2°C° 0 mm 3 mps 751 mmHg 90%
    23:00 +2°C° 0 mm 3 mps 751 mmHg 90%

    18 December, Wednesday

    Time Temperature Precipitation Wind Pressure Humidity
    00:00 +2°C° 0 mm 3 mps 750 mmHg 90%
    01:00 +2°C° 0 mm 3 mps 750 mmHg 90%
    02:00 +2°C° 0 mm 3 mps 750 mmHg 90%
    03:00 +1°C° 0 mm 3 mps 749 mmHg 90%
    04:00 +1°C° 0 mm 3 mps 749 mmHg 89%
    05:00 +1°C° 0 mm 3 mps 749 mmHg 88%
    06:00 +1°C° 0 mm 3 mps 749 mmHg 88%
    07:00 +1°C° 0 mm 3 mps 748 mmHg 87%
    08:00 +1°C° 0 mm 3 mps 748 mmHg 87%
    09:00 +2°C° 0 mm 3 mps 748 mmHg 82%
    10:00 +3°C° 0 mm 3 mps 748 mmHg 77%
    11:00 +4°C° 0 mm 3 mps 748 mmHg 73%
    12:00 +4°C° 0 mm 3 mps 748 mmHg 72%
    13:00 +4°C° 0 mm 3 mps 748 mmHg 71%
    14:00 +5°C° 0 mm 3 mps 747 mmHg 71%
    15:00 +4°C° 0 mm 3 mps 747 mmHg 76%
    16:00 +3°C° 0 mm 3 mps 747 mmHg 81%
    17:00 +4°C° 0 mm 2 mps 748 mmHg 86%
    18:00 +3°C° 0 mm 2 mps 748 mmHg 89%
    19:00 +3°C° 0 mm 2 mps 748 mmHg 91%
    20:00 +3°C° 0 mm 2 mps 748 mmHg 94%
    21:00 +3°C° 0 mm 2 mps 748 mmHg 94%
    22:00 +3°C° 0 mm 2 mps 748 mmHg 95%
    23:00 +3°C° 0 mm 2 mps 748 mmHg 95%
    Show more